THOR AGENA B DEB, 2153

Orbit data source: Space-Track

THOR AGENA B DEB, 2153 is space debris in LEO originally from a launch on Mon, 29 Nov 1965 UTC launched from the Air Force Western Test Range (AFWTR). Debris objects in space refer to the collection of defunct objects orbiting the Earth. Examples of debris include non-operational satellites, rocket bodies, and fragments generated from explosions, collisions, or faulty payload assembly.

Loading next visibility...
Identifier
2153, 1965-098J
Orbit
LEO
Country
Flag of USUS
Related business
Manufacturer
Unknown
Mission
Spacecraft
Bus & Motor
Unknown
Mass
~1 kg wet, ~1 kg dry
Launch date (UTC)
1965-11-29 (60 years ago)
Launch vehicle
Unknown
Launch site
Air Force Western Test Range (AFWTR)
Object type
Payload
Rocket body
Debris
Shape & HBR
Unknown
Radar Cross Section
Small (<0.1 m²)

Expand to show TLE details & history
Last TLE update: 14 hours ago

TLE from 14 hours ago
0 THOR AGENA B DEB
1 02153U 65098J   25342.80475829  .00002158  00000-0  67973-3 0  9999
2 02153  79.7422 238.9962 1281781  79.8830 350.7580 12.38851770663450
Epoch: 2025-12-08T19:18Z
TLE epoch observation values (Epoch: 2025-12-08T19:18:51.116Z)
Latitude
65.78837°
Longitude
-104.92531°
Altitude
528.411 km
Speed
8.071 km/s
True Right ascension
17h 30m 20s
True Declination
65° 39' 19"
Sunlit
Object was in daylight at epoch
Visualization orbit readout
Latitude
Unknown
Longitude
Unknown
Altitude
Unknown
Speed
Unknown
Apparent Right ascension
Unknown
Apparent Declination
Unknown
Sunlit
N/A
Visualization observer readout
Local Sidereal Time
07:02:22
Azimuth
Unknown
Elevation
Unknown
Doppler factor
Unknown
Orbital elements
Apogee altitude
2,519.835 km
Perigee altitude
497.946 km
Semi-major axis
7,887.028 km
Eccentricity
0.12818
Inclination
79.7422°
RAAN
238.9962°
Arg. of periapsis
79.883°
True anomaly
347.96108°
Mean anomaly
350.758°
Eccentric anomaly
349.40807°
Mean motion
3.09865 °/min
Orbital period
116.18 mins
BSTAR
0.00067973
Loading maneuver chart data...
Computing Atmospheric mass density...
Loading historical data...
Loading historical data...
Loading historical data...
Loading historical data...
Loading historical data...
Loading historical data...
Loading historical data...

Documentation

Showing up to 5 results
|